KDYR  Dyersburg Regional Airport

Add Bookmark

Dyersburg, Tennessee, United States

Status Useage
Operational Public
Latitude Longitude
35° 59' 52" N 89° 24' 23" W
35.997972 -89.406583
Local (DST -5) UTC (GMT -6)
Aug 1, 2014 12:45 Aug 1, 2014 05:45
Sunrise-Sunset Local UTC
Begin Civil Twilight 05:36 10:36
Sunrise 06:04 11:04
Sunset 08:03 01:03
End Civil Twilight 08:31 01:31

Current Weather

METAR Observed VFR
KDYR 010535Z 00000KT 10SM FEW090 SCT120 21/16 A3007 Fri, Aug 1, 2014 @ 05:35 UTC
(10 Minutes ago)
Visual Flight Rules

Decoded METAR

Wind Visibility Clouds Conditions
Calm 10 statute miles
  • Few at 9,000' AGL
  • Scattered at 12,000' AGL
  • No significant weather
Temperatures Readings Precipitation
Current Temp 21°C (70°F)
Dewpoint 16°C (61°F)
Humidity 73%
Altimeter 30.07"Hg
Sea Level Pressure 1018mb
Field Elevation 337'
None Recorded

Additional weather within a 50nm radius of KDYR

Map ICAO Location
KHKA 20.9nm W (261°)
KBYH 26.2nm W (266°)
KUCY 30.7nm N (042°)
KMKL 33.8nm S (135°)
KNQA 44.6nm S (211°)

24 Hour Weather History

Loading
-

24 Hour Weather Graphs

Loading
-

CheckWX.com is intended as a tool to help pilots better visualize weather data. It is not intended as a substitute for an official weather briefing obtained from a Flight Service Station. CheckWX.com does not meet the FAA requirements for an official pre-flight weather briefing. Therefore, it's important that pilots still call and obtain an official FSS pre-flight weather briefing.